Volver al catálogo

USA 433

ActivoMilitarVLEO
NORAD 61656·PAYLOAD·🇺🇸 United States

Lanzado Oct 24, 2024 desde Vandenberg Space Force Base

Loading…

Próximos Pases (próximas 24 horas)

TLE

ObsoletoSource: Mike McCants

Época: Aug 11, 2026, 19:44 UTC

1 61656U 24192N   26223.82272523 0.00000000  00000-0  00000-0 0    01
2 61656  70.0193 112.3886 0003000 232.2006 127.7994 14.96713670    06

Sigue USA 433 en tiempo real con AllMySat

Download on the App Store